TimePDT,TemperatureF,Dew PointF,Humidity,Sea Level PressureIn,VisibilityMPH,Wind Direction,Wind SpeedMPH,Gust SpeedMPH,PrecipitationIn,Events,Conditions,WindDirDegrees,DateUTC
12:53 AM,69.1,55.0,61,29.91,10.0,East,8.1,-,N/A,,Clear,100,2013-09-03 07:53:00
1:53 AM,69.1,55.0,61,29.91,10.0,ESE,8.1,-,N/A,,Mostly Cloudy,110,2013-09-03 08:53:00
2:53 AM,69.1,55.0,61,29.90,10.0,East,5.8,-,N/A,,Mostly Cloudy,80,2013-09-03 09:53:00
3:53 AM,70.0,55.0,59,29.92,10.0,East,10.4,-,N/A,,Overcast,100,2013-09-03 10:53:00
4:53 AM,69.1,55.0,61,29.92,10.0,East,11.5,-,N/A,,Mostly Cloudy,100,2013-09-03 11:53:00
5:53 AM,66.0,54.0,65,29.93,10.0,SE,3.5,-,N/A,,Scattered Clouds,130,2013-09-03 12:53:00
6:53 AM,66.9,54.0,63,29.93,10.0,ESE,8.1,-,N/A,,Partly Cloudy,110,2013-09-03 13:53:00
7:53 AM,71.1,54.0,55,29.94,10.0,ESE,9.2,-,N/A,,Clear,110,2013-09-03 14:53:00
8:53 AM,73.0,55.0,53,29.96,9.0,East,10.4,-,N/A,,Clear,80,2013-09-03 15:53:00
9:53 AM,73.9,55.0,52,29.97,9.0,ESE,11.5,-,N/A,,Scattered Clouds,110,2013-09-03 16:53:00
10:53 AM,79.0,55.9,45,29.97,9.0,SE,10.4,-,N/A,,Scattered Clouds,140,2013-09-03 17:53:00
11:14 AM,78.8,55.4,44,30.02,10.0,SSE,8.1,-,N/A,,Scattered Clouds,150,2013-09-03 18:14:00
11:53 AM,78.1,55.9,46,29.99,10.0,SW,5.8,-,N/A,,Clear,220,2013-09-03 18:53:00
12:53 PM,73.9,57.9,57,30.03,9.0,South,18.4,27.6,0.00,Rain,Light Rain,180,2013-09-03 19:53:00
1:53 PM,69.1,57.9,68,30.01,7.0,SSE,4.6,-,0.01,Rain,Light Rain,150,2013-09-03 20:53:00
2:53 PM,75.0,60.1,60,29.98,10.0,ESE,12.7,-,0.00,,Partly Cloudy,110,2013-09-03 21:53:00
3:53 PM,80.1,53.1,39,29.96,10.0,ESE,11.5,-,N/A,,Clear,120,2013-09-03 22:53:00
4:53 PM,80.1,53.1,39,29.95,10.0,East,9.2,-,N/A,,Clear,100,2013-09-03 23:53:00
5:53 PM,78.1,55.0,45,29.95,10.0,ESE,6.9,-,N/A,,Clear,120,2013-09-04 00:53:00
6:53 PM,77.0,55.9,48,29.94,10.0,ESE,6.9,-,N/A,,Clear,110,2013-09-04 01:53:00
7:53 PM,73.0,55.0,53,29.95,10.0,ESE,8.1,-,N/A,,Clear,110,2013-09-04 02:53:00
8:53 PM,70.0,55.0,59,29.95,10.0,NE,5.8,-,N/A,,Clear,50,2013-09-04 03:53:00
9:53 PM,66.9,54.0,63,29.95,10.0,East,3.5,-,N/A,,Clear,90,2013-09-04 04:53:00
10:53 PM,66.0,54.0,65,29.95,10.0,Calm,Calm,-,N/A,,Clear,0,2013-09-04 05:53:00
11:53 PM,68.0,54.0,61,29.95,10.0,Calm,Calm,-,N/A,,Clear,0,2013-09-04 06:53:00